contact:dominique.lefevre@mio.osupytheas.fr, maurice.libes@osupytheas.fr, didier.mallarino@osupytheas.fr
Project:EMSO http://www.emso-fr.org/EMSO-France
Depth: 2436.0 m
Title:EMSO Ligure Ouest : Data MII capteur MICROCAT
DateTime_Computer,Latitude,Longitude,Temperature,Conductivity,Pressure,DateTime_Instrument
DateTime_Computer,Latitude,Longitude,degC,S m-1,dbar,DateTime_Instrument
2023-10-10T00:01:14Z,42.805,6.029,13.3053,4.60129,2470.67,2023-10-10T02:03:38Z
2023-10-10T00:04:17Z,42.805,6.029,13.3058,4.60123,2470.707,2023-10-10T02:06:42Z
2023-10-10T00:07:20Z,42.805,6.029,13.3057,4.60122,2470.679,2023-10-10T02:09:45Z
2023-10-10T00:10:24Z,42.805,6.029,13.3058,4.60125,2470.707,2023-10-10T02:12:48Z
2023-10-10T00:13:27Z,42.805,6.029,13.3052,4.60123,2470.717,2023-10-10T02:15:51Z
2023-10-10T00:16:30Z,42.805,6.029,13.3062,4.60125,2470.693,2023-10-10T02:18:54Z
2023-10-10T00:19:33Z,42.805,6.029,13.3056,4.60127,2470.717,2023-10-10T02:21:57Z
2023-10-10T00:22:36Z,42.805,6.029,13.3059,4.60124,2470.67,2023-10-10T02:25:00Z
2023-10-10T00:25:39Z,42.805,6.029,13.3061,4.60126,2470.693,2023-10-10T02:28:03Z
2023-10-10T00:28:42Z,42.805,6.029,13.3076,4.60123,2470.661,2023-10-10T02:31:06Z
2023-10-10T00:31:45Z,42.805,6.029,13.3065,4.60115,2470.707,2023-10-10T02:34:09Z
2023-10-10T00:34:48Z,42.805,6.029,13.3054,4.60129,2470.707,2023-10-10T02:37:12Z
2023-10-10T00:37:51Z,42.805,6.029,13.3061,4.60125,2470.693,2023-10-10T02:40:15Z
2023-10-10T00:40:54Z,42.805,6.029,13.3054,4.60118,2470.684,2023-10-10T02:43:18Z
2023-10-10T00:43:57Z,42.805,6.029,13.3067,4.60119,2470.684,2023-10-10T02:46:22Z
2023-10-10T00:47:01Z,42.805,6.029,13.3049,4.60112,2470.693,2023-10-10T02:49:25Z
2023-10-10T00:50:04Z,42.805,6.029,13.3061,4.60123,2470.707,2023-10-10T02:52:28Z
2023-10-10T00:53:07Z,42.805,6.029,13.3058,4.60117,2470.717,2023-10-10T02:55:31Z
2023-10-10T00:56:10Z,42.805,6.029,13.3050,4.60119,2470.73,2023-10-10T02:58:34Z
2023-10-10T00:59:13Z,42.805,6.029,13.3061,4.60118,2470.717,2023-10-10T03:01:37Z
2023-10-10T01:02:16Z,42.805,6.029,13.3056,4.60127,2470.707,2023-10-10T03:04:40Z
2023-10-10T01:05:19Z,42.805,6.029,13.3044,4.60114,2470.707,2023-10-10T03:07:43Z
2023-10-10T01:08:22Z,42.805,6.029,13.3058,4.60121,2470.717,2023-10-10T03:10:46Z
2023-10-10T01:11:25Z,42.805,6.029,13.3058,4.60113,2470.73,2023-10-10T03:13:49Z
2023-10-10T01:14:28Z,42.805,6.029,13.3054,4.60120,2470.73,2023-10-10T03:16:52Z
2023-10-10T01:17:31Z,42.805,6.029,13.3064,4.60119,2470.73,2023-10-10T03:19:55Z
2023-10-10T01:20:34Z,42.805,6.029,13.3052,4.60116,2470.67,2023-10-10T03:22:58Z
2023-10-10T01:23:37Z,42.805,6.029,13.3047,4.60119,2470.693,2023-10-10T03:26:02Z
2023-10-10T01:26:41Z,42.805,6.029,13.3073,4.60123,2470.707,2023-10-10T03:29:05Z
2023-10-10T01:29:44Z,42.805,6.029,13.3065,4.60123,2470.707,2023-10-10T03:32:08Z
2023-10-10T01:32:47Z,42.805,6.029,13.3057,4.60117,2470.717,2023-10-10T03:35:11Z
2023-10-10T01:35:50Z,42.805,6.029,13.3057,4.60120,2470.73,2023-10-10T03:38:14Z
2023-10-10T01:38:53Z,42.805,6.029,13.3073,4.60125,2470.717,2023-10-10T03:41:17Z
2023-10-10T01:41:56Z,42.805,6.029,13.3069,4.60127,2470.67,2023-10-10T03:44:20Z
2023-10-10T01:44:59Z,42.805,6.029,13.3061,4.60113,2470.74,2023-10-10T03:47:23Z
2023-10-10T01:48:02Z,42.805,6.029,13.3048,4.60116,2470.693,2023-10-10T03:50:26Z
2023-10-10T01:51:05Z,42.805,6.029,13.3056,4.60117,2470.73,2023-10-10T03:53:29Z
2023-10-10T01:54:08Z,42.805,6.029,13.3057,4.60119,2470.73,2023-10-10T03:56:32Z
2023-10-10T01:57:11Z,42.805,6.029,13.3053,4.60117,2470.717,2023-10-10T03:59:35Z
2023-10-10T02:00:14Z,42.805,6.029,13.3057,4.60121,2470.754,2023-10-10T04:02:39Z
2023-10-10T02:03:18Z,42.805,6.029,13.3057,4.60122,2470.74,2023-10-10T04:05:42Z
2023-10-10T02:06:21Z,42.805,6.029,13.3055,4.60117,2470.693,2023-10-10T04:08:45Z
2023-10-10T02:09:24Z,42.805,6.029,13.3049,4.60127,2470.74,2023-10-10T04:11:48Z
2023-10-10T02:12:27Z,42.805,6.029,13.3058,4.60112,2470.717,2023-10-10T04:14:51Z
2023-10-10T02:15:30Z,42.805,6.029,13.3057,4.60119,2470.74,2023-10-10T04:17:54Z
2023-10-10T02:18:33Z,42.805,6.029,13.3067,4.60122,2470.717,2023-10-10T04:20:57Z
2023-10-10T02:21:36Z,42.805,6.029,13.3055,4.60120,2470.754,2023-10-10T04:24:00Z
2023-10-10T02:24:39Z,42.805,6.029,13.3061,4.60119,2470.777,2023-10-10T04:27:03Z
2023-10-10T02:27:42Z,42.805,6.029,13.3058,4.60114,2470.763,2023-10-10T04:30:06Z
2023-10-10T02:30:45Z,42.805,6.029,13.3061,4.60117,2470.73,2023-10-10T04:33:09Z
2023-10-10T02:33:48Z,42.805,6.029,13.3061,4.60114,2470.707,2023-10-10T04:36:12Z
2023-10-10T02:36:51Z,42.805,6.029,13.3056,4.60117,2470.717,2023-10-10T04:39:16Z
2023-10-10T02:39:55Z,42.805,6.029,13.3064,4.60115,2470.787,2023-10-10T04:42:19Z
2023-10-10T02:42:58Z,42.805,6.029,13.3059,4.60113,2470.74,2023-10-10T04:45:22Z
2023-10-10T02:46:01Z,42.805,6.029,13.3052,4.60126,2470.74,2023-10-10T04:48:25Z
2023-10-10T02:49:04Z,42.805,6.029,13.3068,4.60117,2470.73,2023-10-10T04:51:28Z
2023-10-10T02:52:07Z,42.805,6.029,13.3063,4.60116,2470.74,2023-10-10T04:54:31Z
2023-10-10T02:55:10Z,42.805,6.029,13.3054,4.60120,2470.73,2023-10-10T04:57:34Z
2023-10-10T02:58:13Z,42.805,6.029,13.3049,4.60121,2470.74,2023-10-10T05:00:37Z
2023-10-10T03:01:16Z,42.805,6.029,13.3057,4.60122,2470.763,2023-10-10T05:03:40Z
2023-10-10T03:04:19Z,42.805,6.029,13.3057,4.60120,2470.787,2023-10-10T05:06:43Z
2023-10-10T03:07:22Z,42.805,6.029,13.3063,4.60114,2470.754,2023-10-10T05:09:46Z
2023-10-10T03:10:25Z,42.805,6.029,13.3056,4.60122,2470.74,2023-10-10T05:12:49Z
2023-10-10T03:13:28Z,42.805,6.029,13.3051,4.60118,2470.763,2023-10-10T05:15:53Z
2023-10-10T03:16:32Z,42.805,6.029,13.3058,4.60128,2470.754,2023-10-10T05:18:56Z
2023-10-10T03:19:35Z,42.805,6.029,13.3053,4.60119,2470.74,2023-10-10T05:21:59Z
2023-10-10T03:22:38Z,42.805,6.029,13.3044,4.60131,2470.74,2023-10-10T05:25:02Z
2023-10-10T03:25:41Z,42.805,6.029,13.3054,4.60125,2470.754,2023-10-10T05:28:05Z
2023-10-10T03:28:44Z,42.805,6.029,13.3059,4.60116,2470.8,2023-10-10T05:31:08Z
2023-10-10T03:31:47Z,42.805,6.029,13.3058,4.60115,2470.74,2023-10-10T05:34:11Z
2023-10-10T03:34:50Z,42.805,6.029,13.3056,4.60116,2470.763,2023-10-10T05:37:14Z
2023-10-10T03:37:53Z,42.805,6.029,13.3060,4.60117,2470.754,2023-10-10T05:40:17Z
2023-10-10T03:40:56Z,42.805,6.029,13.3063,4.60122,2470.787,2023-10-10T05:43:20Z
2023-10-10T03:43:59Z,42.805,6.029,13.3058,4.60116,2470.777,2023-10-10T05:46:23Z
2023-10-10T03:47:02Z,42.805,6.029,13.3052,4.60116,2470.74,2023-10-10T05:49:26Z
2023-10-10T03:50:05Z,42.805,6.029,13.3050,4.60121,2470.777,2023-10-10T05:52:30Z
2023-10-10T03:53:08Z,42.805,6.029,13.3048,4.60152,2470.74,2023-10-10T05:55:33Z
2023-10-10T03:56:12Z,42.805,6.029,13.3060,4.60123,2470.74,2023-10-10T05:58:36Z
2023-10-10T03:59:15Z,42.805,6.029,13.3063,4.60129,2470.8,2023-10-10T06:01:39Z
2023-10-10T04:02:18Z,42.805,6.029,13.3058,4.60126,2470.787,2023-10-10T06:04:42Z
2023-10-10T04:05:21Z,42.805,6.029,13.3068,4.60134,2470.763,2023-10-10T06:07:45Z
2023-10-10T04:08:24Z,42.805,6.029,13.3054,4.60127,2470.777,2023-10-10T06:10:48Z
2023-10-10T04:11:27Z,42.805,6.029,13.3063,4.60113,2470.763,2023-10-10T06:13:51Z
2023-10-10T04:14:30Z,42.805,6.029,13.3052,4.60120,2470.75,2023-10-10T06:16:54Z
2023-10-10T04:17:33Z,42.805,6.029,13.3053,4.60119,2470.763,2023-10-10T06:19:57Z
2023-10-10T04:20:36Z,42.805,6.029,13.3065,4.60119,2470.754,2023-10-10T06:23:00Z
2023-10-10T04:23:39Z,42.805,6.029,13.3061,4.60121,2470.754,2023-10-10T06:26:03Z
2023-10-10T04:26:42Z,42.805,6.029,13.3056,4.60121,2470.763,2023-10-10T06:29:06Z
2023-10-10T04:29:45Z,42.805,6.029,13.3057,4.60126,2470.763,2023-10-10T06:32:10Z
2023-10-10T04:32:48Z,42.805,6.029,13.3075,4.60118,2470.763,2023-10-10T06:35:12Z
2023-10-10T04:35:51Z,42.805,6.029,13.3059,4.60119,2470.777,2023-10-10T06:38:15Z
2023-10-10T04:38:54Z,42.805,6.029,13.3056,4.60121,2470.763,2023-10-10T06:41:18Z
2023-10-10T04:41:57Z,42.805,6.029,13.3072,4.60120,2470.777,2023-10-10T06:44:21Z
2023-10-10T04:45:00Z,42.805,6.029,13.3082,4.60119,2470.763,2023-10-10T06:47:24Z
2023-10-10T04:48:03Z,42.805,6.029,13.3067,4.60125,2470.763,2023-10-10T06:50:27Z
2023-10-10T04:51:06Z,42.805,6.029,13.3055,4.60118,2470.787,2023-10-10T06:53:30Z
2023-10-10T04:54:09Z,42.805,6.029,13.3061,4.60119,2470.763,2023-10-10T06:56:33Z
2023-10-10T04:57:12Z,42.805,6.029,13.3066,4.60114,2470.763,2023-10-10T06:59:36Z
2023-10-10T05:00:15Z,42.805,6.029,13.3047,4.60115,2470.787,2023-10-10T07:02:40Z
2023-10-10T05:03:18Z,42.805,6.029,13.3056,4.60120,2470.787,2023-10-10T07:05:43Z
2023-10-10T05:06:22Z,42.805,6.029,13.3058,4.60119,2470.754,2023-10-10T07:08:46Z
2023-10-10T05:09:25Z,42.805,6.029,13.3056,4.60116,2470.74,2023-10-10T07:11:49Z
2023-10-10T05:12:28Z,42.805,6.029,13.3053,4.60120,2470.763,2023-10-10T07:14:52Z
2023-10-10T05:15:31Z,42.805,6.029,13.3061,4.60116,2470.74,2023-10-10T07:17:55Z
2023-10-10T05:18:34Z,42.805,6.029,13.3058,4.60121,2470.74,2023-10-10T07:20:58Z
2023-10-10T05:21:37Z,42.805,6.029,13.3063,4.60117,2470.763,2023-10-10T07:24:01Z
2023-10-10T05:24:40Z,42.805,6.029,13.3054,4.60114,2470.777,2023-10-10T07:27:04Z
2023-10-10T05:27:43Z,42.805,6.029,13.3058,4.60117,2470.763,2023-10-10T07:30:07Z
2023-10-10T05:30:46Z,42.805,6.029,13.3064,4.60117,2470.777,2023-10-10T07:33:10Z
2023-10-10T05:33:49Z,42.805,6.029,13.3048,4.60119,2470.763,2023-10-10T07:36:13Z
2023-10-10T05:36:52Z,42.805,6.029,13.3048,4.60122,2470.777,2023-10-10T07:39:16Z
2023-10-10T05:39:55Z,42.805,6.029,13.3054,4.60117,2470.74,2023-10-10T07:42:20Z
2023-10-10T05:42:59Z,42.805,6.029,13.3059,4.60122,2470.74,2023-10-10T07:45:23Z
2023-10-10T05:46:02Z,42.805,6.029,13.3060,4.60117,2470.763,2023-10-10T07:48:26Z
2023-10-10T05:49:05Z,42.805,6.029,13.3058,4.60119,2470.777,2023-10-10T07:51:29Z
2023-10-10T05:52:08Z,42.805,6.029,13.3063,4.60119,2470.777,2023-10-10T07:54:32Z
2023-10-10T05:55:11Z,42.805,6.029,13.3055,4.60116,2470.763,2023-10-10T07:57:35Z
2023-10-10T05:58:14Z,42.805,6.029,13.3057,4.60109,2470.726,2023-10-10T08:00:38Z
2023-10-10T06:01:17Z,42.805,6.029,13.3061,4.60117,2470.754,2023-10-10T08:03:41Z
2023-10-10T06:04:20Z,42.805,6.029,13.3060,4.60105,2470.787,2023-10-10T08:06:44Z
2023-10-10T06:07:23Z,42.805,6.029,13.3074,4.60116,2470.75,2023-10-10T08:09:47Z
2023-10-10T06:10:26Z,42.805,6.029,13.3050,4.60114,2470.74,2023-10-10T08:12:50Z
2023-10-10T06:13:29Z,42.805,6.029,13.3056,4.60111,2470.74,2023-10-10T08:15:53Z
2023-10-10T06:16:32Z,42.805,6.029,13.3054,4.60119,2470.74,2023-10-10T08:18:57Z
2023-10-10T06:19:35Z,42.805,6.029,13.3065,4.60117,2470.763,2023-10-10T08:22:00Z
2023-10-10T06:22:39Z,42.805,6.029,13.3063,4.60113,2470.763,2023-10-10T08:25:03Z
2023-10-10T06:25:42Z,42.805,6.029,13.3061,4.60107,2470.763,2023-10-10T08:28:06Z
2023-10-10T06:28:45Z,42.805,6.029,13.3056,4.60107,2470.777,2023-10-10T08:31:09Z
2023-10-10T06:31:47Z,42.805,6.029,13.3056,4.60115,2470.73,2023-10-10T08:34:11Z
2023-10-10T06:34:50Z,42.805,6.029,13.3056,4.60116,2470.74,2023-10-10T08:37:14Z
2023-10-10T06:37:53Z,42.805,6.029,13.3058,4.60113,2470.754,2023-10-10T08:40:17Z
2023-10-10T06:40:56Z,42.805,6.029,13.3054,4.60118,2470.74,2023-10-10T08:43:20Z
2023-10-10T06:43:59Z,42.805,6.029,13.3053,4.60113,2470.754,2023-10-10T08:46:23Z
2023-10-10T06:47:02Z,42.805,6.029,13.3059,4.60115,2470.74,2023-10-10T08:49:26Z
2023-10-10T06:50:05Z,42.805,6.029,13.3050,4.60114,2470.754,2023-10-10T08:52:29Z
2023-10-10T06:53:08Z,42.805,6.029,13.3050,4.60119,2470.754,2023-10-10T08:55:32Z
2023-10-10T06:56:11Z,42.805,6.029,13.3067,4.60116,2470.73,2023-10-10T08:58:36Z
2023-10-10T06:59:15Z,42.805,6.029,13.3054,4.60117,2470.73,2023-10-10T09:01:39Z
2023-10-10T07:02:18Z,42.805,6.029,13.3065,4.60119,2470.763,2023-10-10T09:04:42Z
2023-10-10T07:05:21Z,42.805,6.029,13.3049,4.60121,2470.73,2023-10-10T09:07:45Z
2023-10-10T07:08:24Z,42.805,6.029,13.3060,4.60119,2470.754,2023-10-10T09:10:48Z
2023-10-10T07:11:27Z,42.805,6.029,13.3059,4.60113,2470.763,2023-10-10T09:13:51Z
2023-10-10T07:14:30Z,42.805,6.029,13.3061,4.60119,2470.74,2023-10-10T09:16:54Z
2023-10-10T07:17:33Z,42.805,6.029,13.3053,4.60116,2470.73,2023-10-10T09:19:57Z
2023-10-10T07:20:36Z,42.805,6.029,13.3049,4.60104,2470.726,2023-10-10T09:23:00Z
2023-10-10T07:23:39Z,42.805,6.029,13.3051,4.60119,2470.754,2023-10-10T09:26:03Z
2023-10-10T07:26:42Z,42.805,6.029,13.3053,4.60117,2470.754,2023-10-10T09:29:06Z
2023-10-10T07:29:45Z,42.805,6.029,13.3051,4.60129,2470.763,2023-10-10T09:32:09Z
2023-10-10T07:32:48Z,42.805,6.029,13.3061,4.60113,2470.777,2023-10-10T09:35:13Z
2023-10-10T07:35:51Z,42.805,6.029,13.3052,4.60119,2470.74,2023-10-10T09:38:16Z
2023-10-10T07:38:55Z,42.805,6.029,13.3055,4.60110,2470.754,2023-10-10T09:41:19Z
2023-10-10T07:41:58Z,42.805,6.029,13.3059,4.60119,2470.74,2023-10-10T09:44:22Z
2023-10-10T07:45:01Z,42.805,6.029,13.3054,4.60114,2470.707,2023-10-10T09:47:25Z
2023-10-10T07:48:04Z,42.805,6.029,13.3061,4.60108,2470.717,2023-10-10T09:50:28Z
2023-10-10T07:51:07Z,42.805,6.029,13.3055,4.60109,2470.73,2023-10-10T09:53:31Z
2023-10-10T07:54:10Z,42.805,6.029,13.3056,4.60118,2470.717,2023-10-10T09:56:34Z
2023-10-10T07:57:13Z,42.805,6.029,13.3045,4.60128,2470.73,2023-10-10T09:59:37Z
2023-10-10T08:00:16Z,42.805,6.029,13.3059,4.60110,2470.73,2023-10-10T10:02:40Z
2023-10-10T08:03:19Z,42.805,6.029,13.3059,4.60130,2470.693,2023-10-10T10:05:43Z
2023-10-10T08:06:22Z,42.805,6.029,13.3058,4.60112,2470.74,2023-10-10T10:08:46Z
2023-10-10T08:09:25Z,42.805,6.029,13.3051,4.60125,2470.717,2023-10-10T10:11:50Z
2023-10-10T08:12:28Z,42.805,6.029,13.3051,4.60122,2470.707,2023-10-10T10:14:53Z
2023-10-10T08:15:32Z,42.805,6.029,13.3057,4.60117,2470.693,2023-10-10T10:17:56Z
2023-10-10T08:18:35Z,42.805,6.029,13.3062,4.60119,2470.693,2023-10-10T10:20:59Z
2023-10-10T08:21:38Z,42.805,6.029,13.3050,4.60113,2470.693,2023-10-10T10:24:02Z
2023-10-10T08:24:41Z,42.805,6.029,13.3069,4.60114,2470.717,2023-10-10T10:27:05Z
2023-10-10T08:27:44Z,42.805,6.029,13.3048,4.60119,2470.717,2023-10-10T10:30:08Z
2023-10-10T08:30:46Z,42.805,6.029,13.3055,4.60117,2470.73,2023-10-10T10:33:10Z
2023-10-10T08:33:49Z,42.805,6.029,13.3049,4.60121,2470.693,2023-10-10T10:36:13Z
2023-10-10T08:36:52Z,42.805,6.029,13.3051,4.60110,2470.717,2023-10-10T10:39:16Z
2023-10-10T08:39:55Z,42.805,6.029,13.3048,4.60112,2470.754,2023-10-10T10:42:19Z
2023-10-10T08:42:58Z,42.805,6.029,13.3048,4.60112,2470.73,2023-10-10T10:45:22Z
2023-10-10T08:46:01Z,42.805,6.029,13.3046,4.60113,2470.717,2023-10-10T10:48:26Z
2023-10-10T08:49:04Z,42.805,6.029,13.3043,4.60118,2470.693,2023-10-10T10:51:29Z
2023-10-10T08:52:08Z,42.805,6.029,13.3048,4.60112,2470.717,2023-10-10T10:54:32Z
2023-10-10T08:55:11Z,42.805,6.029,13.3052,4.60115,2470.693,2023-10-10T10:57:35Z
2023-10-10T08:58:14Z,42.805,6.029,13.3059,4.60113,2470.717,2023-10-10T11:00:38Z
2023-10-10T09:01:17Z,42.805,6.029,13.3050,4.60115,2470.707,2023-10-10T11:03:41Z
2023-10-10T09:04:20Z,42.805,6.029,13.3047,4.60119,2470.693,2023-10-10T11:06:44Z
2023-10-10T09:07:23Z,42.805,6.029,13.3043,4.60118,2470.703,2023-10-10T11:09:47Z
2023-10-10T09:10:26Z,42.805,6.029,13.3050,4.60114,2470.73,2023-10-10T11:12:50Z
2023-10-10T09:13:29Z,42.805,6.029,13.3052,4.60106,2470.754,2023-10-10T11:15:53Z
2023-10-10T09:16:32Z,42.805,6.029,13.3061,4.60108,2470.707,2023-10-10T11:18:56Z
2023-10-10T09:19:35Z,42.805,6.029,13.3048,4.60111,2470.693,2023-10-10T11:21:59Z
2023-10-10T09:22:38Z,42.805,6.029,13.3048,4.60112,2470.73,2023-10-10T11:25:03Z
2023-10-10T09:25:42Z,42.805,6.029,13.3050,4.60106,2470.693,2023-10-10T11:28:06Z
2023-10-10T09:28:45Z,42.805,6.029,13.3054,4.60105,2470.717,2023-10-10T11:31:09Z
2023-10-10T09:31:48Z,42.805,6.029,13.3053,4.60112,2470.73,2023-10-10T11:34:12Z
2023-10-10T09:34:51Z,42.805,6.029,13.3059,4.60119,2470.73,2023-10-10T11:37:15Z
2023-10-10T09:37:54Z,42.805,6.029,13.3056,4.60117,2470.67,2023-10-10T11:40:18Z
2023-10-10T09:40:57Z,42.805,6.029,13.3054,4.60111,2470.684,2023-10-10T11:43:21Z
2023-10-10T09:44:00Z,42.805,6.029,13.3056,4.60122,2470.717,2023-10-10T11:46:24Z
2023-10-10T09:47:03Z,42.805,6.029,13.3056,4.60115,2470.73,2023-10-10T11:49:27Z
2023-10-10T09:50:06Z,42.805,6.029,13.3061,4.60110,2470.693,2023-10-10T11:52:30Z
2023-10-10T09:53:09Z,42.805,6.029,13.3056,4.60117,2470.67,2023-10-10T11:55:33Z
2023-10-10T09:56:12Z,42.805,6.029,13.3076,4.60111,2470.693,2023-10-10T11:58:36Z
2023-10-10T09:59:15Z,42.805,6.029,13.3048,4.60116,2470.707,2023-10-10T12:01:40Z
2023-10-10T10:02:19Z,42.805,6.029,13.3051,4.60120,2470.717,2023-10-10T12:04:43Z
2023-10-10T10:05:22Z,42.805,6.029,13.3062,4.60115,2470.693,2023-10-10T12:07:46Z
2023-10-10T10:08:25Z,42.805,6.029,13.3057,4.60116,2470.717,2023-10-10T12:10:49Z
2023-10-10T10:11:28Z,42.805,6.029,13.3058,4.60114,2470.73,2023-10-10T12:13:52Z
2023-10-10T10:14:31Z,42.805,6.029,13.3048,4.60125,2470.717,2023-10-10T12:16:55Z
2023-10-10T10:17:34Z,42.805,6.029,13.3055,4.60117,2470.67,2023-10-10T12:19:58Z
2023-10-10T10:20:37Z,42.805,6.029,13.3063,4.60111,2470.693,2023-10-10T12:23:01Z
2023-10-10T10:23:40Z,42.805,6.029,13.3048,4.60121,2470.693,2023-10-10T12:26:04Z
2023-10-10T10:26:43Z,42.805,6.029,13.3054,4.60112,2470.693,2023-10-10T12:29:07Z
2023-10-10T10:29:46Z,42.805,6.029,13.3058,4.60119,2470.646,2023-10-10T12:32:10Z
2023-10-10T10:32:49Z,42.805,6.029,13.3060,4.60108,2470.707,2023-10-10T12:35:14Z
2023-10-10T10:35:53Z,42.805,6.029,13.3057,4.60110,2470.693,2023-10-10T12:38:17Z
2023-10-10T10:38:56Z,42.805,6.029,13.3057,4.60117,2470.67,2023-10-10T12:41:20Z
2023-10-10T10:41:59Z,42.805,6.029,13.3048,4.60112,2470.684,2023-10-10T12:44:23Z
2023-10-10T10:45:02Z,42.805,6.029,13.3051,4.60127,2470.693,2023-10-10T12:47:26Z
2023-10-10T10:48:05Z,42.805,6.029,13.3054,4.60119,2470.67,2023-10-10T12:50:29Z
2023-10-10T10:51:08Z,42.805,6.029,13.3062,4.60107,2470.693,2023-10-10T12:53:32Z
2023-10-10T10:54:11Z,42.805,6.029,13.3056,4.60107,2470.717,2023-10-10T12:56:35Z
2023-10-10T10:57:14Z,42.805,6.029,13.3057,4.60114,2470.693,2023-10-10T12:59:38Z
2023-10-10T11:00:17Z,42.805,6.029,13.3051,4.60110,2470.693,2023-10-10T13:02:41Z
2023-10-10T11:03:20Z,42.805,6.029,13.3048,4.60118,2470.693,2023-10-10T13:05:44Z
2023-10-10T11:06:23Z,42.805,6.029,13.3048,4.60119,2470.67,2023-10-10T13:08:47Z
2023-10-10T11:09:26Z,42.805,6.029,13.3054,4.60113,2470.717,2023-10-10T13:11:51Z
2023-10-10T11:12:30Z,42.805,6.029,13.3048,4.60114,2470.693,2023-10-10T13:14:54Z
2023-10-10T11:15:33Z,42.805,6.029,13.3051,4.60113,2470.693,2023-10-10T13:17:57Z
2023-10-10T11:18:36Z,42.805,6.029,13.3057,4.60115,2470.67,2023-10-10T13:21:00Z
2023-10-10T11:21:39Z,42.805,6.029,13.3054,4.60112,2470.67,2023-10-10T13:24:03Z
2023-10-10T11:24:42Z,42.805,6.029,13.3046,4.60115,2470.67,2023-10-10T13:27:06Z
2023-10-10T11:27:45Z,42.805,6.029,13.3054,4.60115,2470.684,2023-10-10T13:30:09Z
2023-10-10T11:30:48Z,42.805,6.029,13.3051,4.60115,2470.693,2023-10-10T13:33:12Z
2023-10-10T11:33:51Z,42.805,6.029,13.3048,4.60112,2470.693,2023-10-10T13:36:15Z
2023-10-10T11:36:54Z,42.805,6.029,13.3053,4.60107,2470.693,2023-10-10T13:39:18Z
2023-10-10T11:39:57Z,42.805,6.029,13.3048,4.60122,2470.73,2023-10-10T13:42:21Z
2023-10-10T11:43:00Z,42.805,6.029,13.3049,4.60119,2470.693,2023-10-10T13:45:24Z
2023-10-10T11:46:03Z,42.805,6.029,13.3073,4.60118,2470.684,2023-10-10T13:48:28Z
2023-10-10T11:49:07Z,42.805,6.029,13.3051,4.60125,2470.707,2023-10-10T13:51:31Z
2023-10-10T11:52:10Z,42.805,6.029,13.3050,4.60114,2470.684,2023-10-10T13:54:34Z
2023-10-10T11:55:13Z,42.805,6.029,13.3058,4.60119,2470.693,2023-10-10T13:57:37Z
2023-10-10T11:58:16Z,42.805,6.029,13.3050,4.60114,2470.67,2023-10-10T14:00:40Z
2023-10-10T12:01:19Z,42.805,6.029,13.3051,4.60114,2470.684,2023-10-10T14:03:43Z
2023-10-10T12:04:22Z,42.805,6.029,13.3051,4.60121,2470.693,2023-10-10T14:06:46Z
2023-10-10T12:07:25Z,42.805,6.029,13.3051,4.60113,2470.693,2023-10-10T14:09:49Z
2023-10-10T12:10:28Z,42.805,6.029,13.3048,4.60114,2470.67,2023-10-10T14:12:52Z
2023-10-10T12:13:31Z,42.805,6.029,13.3058,4.60114,2470.693,2023-10-10T14:15:55Z
2023-10-10T12:16:34Z,42.805,6.029,13.3054,4.60115,2470.707,2023-10-10T14:18:58Z
2023-10-10T12:19:37Z,42.805,6.029,13.3051,4.60125,2470.693,2023-10-10T14:22:01Z
2023-10-10T12:22:40Z,42.805,6.029,13.3045,4.60111,2470.707,2023-10-10T14:25:05Z
2023-10-10T12:25:44Z,42.805,6.029,13.3051,4.60112,2470.707,2023-10-10T14:28:08Z
2023-10-10T12:28:47Z,42.805,6.029,13.3060,4.60119,2470.707,2023-10-10T14:31:11Z
2023-10-10T12:31:50Z,42.805,6.029,13.3056,4.60119,2470.693,2023-10-10T14:34:14Z
2023-10-10T12:34:53Z,42.805,6.029,13.3057,4.60117,2470.693,2023-10-10T14:37:17Z
2023-10-10T12:37:56Z,42.805,6.029,13.3062,4.60119,2470.67,2023-10-10T14:40:20Z
2023-10-10T12:40:59Z,42.805,6.029,13.3055,4.60110,2470.707,2023-10-10T14:43:23Z
2023-10-10T12:44:02Z,42.805,6.029,13.3065,4.60117,2470.73,2023-10-10T14:46:26Z
2023-10-10T12:47:05Z,42.805,6.029,13.3056,4.60122,2470.707,2023-10-10T14:49:29Z
2023-10-10T12:50:08Z,42.805,6.029,13.3059,4.60124,2470.73,2023-10-10T14:52:32Z
2023-10-10T12:53:11Z,42.805,6.029,13.3051,4.60128,2470.693,2023-10-10T14:55:35Z
2023-10-10T12:56:14Z,42.805,6.029,13.3082,4.60120,2470.693,2023-10-10T14:58:39Z
2023-10-10T12:59:18Z,42.805,6.029,13.3054,4.60114,2470.73,2023-10-10T15:01:42Z
2023-10-10T13:02:21Z,42.805,6.029,13.3054,4.60117,2470.707,2023-10-10T15:04:45Z
2023-10-10T13:05:24Z,42.805,6.029,13.3059,4.60132,2470.693,2023-10-10T15:07:48Z
2023-10-10T13:08:27Z,42.805,6.029,13.3062,4.60117,2470.73,2023-10-10T15:10:51Z
2023-10-10T13:11:30Z,42.805,6.029,13.3057,4.60121,2470.693,2023-10-10T15:13:54Z
2023-10-10T13:14:33Z,42.805,6.029,13.3064,4.60117,2470.717,2023-10-10T15:16:57Z
2023-10-10T13:17:36Z,42.805,6.029,13.3058,4.60122,2470.707,2023-10-10T15:20:00Z
2023-10-10T13:20:39Z,42.805,6.029,13.3055,4.60130,2470.693,2023-10-10T15:23:03Z
2023-10-10T13:23:42Z,42.805,6.029,13.3056,4.60126,2470.754,2023-10-10T15:26:06Z
2023-10-10T13:26:45Z,42.805,6.029,13.3075,4.60122,2470.74,2023-10-10T15:29:09Z
2023-10-10T13:29:48Z,42.805,6.029,13.3039,4.60119,2470.74,2023-10-10T15:32:12Z
2023-10-10T13:32:51Z,42.805,6.029,13.3067,4.60141,2470.763,2023-10-10T15:35:16Z
2023-10-10T13:35:55Z,42.805,6.029,13.3076,4.60128,2470.717,2023-10-10T15:38:19Z
2023-10-10T13:38:58Z,42.805,6.029,13.3057,4.60121,2470.717,2023-10-10T15:41:22Z
2023-10-10T13:42:01Z,42.805,6.029,13.3061,4.60115,2470.707,2023-10-10T15:44:25Z
2023-10-10T13:45:04Z,42.805,6.029,13.3061,4.60114,2470.73,2023-10-10T15:47:28Z
2023-10-10T13:48:07Z,42.805,6.029,13.3057,4.60117,2470.73,2023-10-10T15:50:31Z
2023-10-10T13:51:10Z,42.805,6.029,13.3056,4.60117,2470.754,2023-10-10T15:53:34Z
2023-10-10T13:54:13Z,42.805,6.029,13.3076,4.60119,2470.73,2023-10-10T15:56:37Z
2023-10-10T13:57:16Z,42.805,6.029,13.3068,4.60132,2470.693,2023-10-10T15:59:40Z
2023-10-10T14:00:19Z,42.805,6.029,13.3074,4.60130,2470.763,2023-10-10T16:02:43Z
2023-10-10T14:03:22Z,42.805,6.029,13.3061,4.60123,2470.74,2023-10-10T16:05:46Z
2023-10-10T14:06:25Z,42.805,6.029,13.3064,4.60124,2470.763,2023-10-10T16:08:50Z
2023-10-10T14:09:28Z,42.805,6.029,13.3058,4.60120,2470.74,2023-10-10T16:11:53Z
2023-10-10T14:12:32Z,42.805,6.029,13.3048,4.60127,2470.74,2023-10-10T16:14:56Z
2023-10-10T14:15:35Z,42.805,6.029,13.3057,4.60122,2470.763,2023-10-10T16:17:59Z
2023-10-10T14:18:38Z,42.805,6.029,13.3061,4.60120,2470.74,2023-10-10T16:21:02Z
2023-10-10T14:21:41Z,42.805,6.029,13.3075,4.60123,2470.777,2023-10-10T16:24:05Z
2023-10-10T14:24:44Z,42.805,6.029,13.3071,4.60135,2470.777,2023-10-10T16:27:08Z
2023-10-10T14:27:47Z,42.805,6.029,13.3062,4.60119,2470.777,2023-10-10T16:30:11Z
2023-10-10T14:30:50Z,42.805,6.029,13.3073,4.60143,2470.763,2023-10-10T16:33:14Z
2023-10-10T14:33:53Z,42.805,6.029,13.3110,4.60137,2470.8,2023-10-10T16:36:17Z
2023-10-10T14:36:56Z,42.805,6.029,13.3057,4.60137,2470.787,2023-10-10T16:39:20Z
2023-10-10T14:39:59Z,42.805,6.029,13.3051,4.60129,2470.824,2023-10-10T16:42:23Z
2023-10-10T14:43:02Z,42.805,6.029,13.3054,4.60127,2470.754,2023-10-10T16:45:27Z
2023-10-10T14:46:05Z,42.805,6.029,13.3070,4.60121,2470.763,2023-10-10T16:48:30Z
2023-10-10T14:49:09Z,42.805,6.029,13.3055,4.60133,2470.777,2023-10-10T16:51:33Z
2023-10-10T14:52:12Z,42.805,6.029,13.3061,4.60150,2470.81,2023-10-10T16:54:36Z
2023-10-10T14:55:15Z,42.805,6.029,13.3071,4.60123,2470.777,2023-10-10T16:57:39Z
2023-10-10T14:58:18Z,42.805,6.029,13.3061,4.60141,2470.8,2023-10-10T17:00:42Z
2023-10-10T15:01:21Z,42.805,6.029,13.3061,4.60132,2470.824,2023-10-10T17:03:45Z